User: anonymous   Login
Location: Henham
(51.9333°N, 0.2500°E)
Time: 21:19:19
(UTC+00:00)
Language:

Cosmos 1898 Rocket - Orbit

View from above orbital plane
View from above orbital plane
View from above satellite
View from above satellite

Ground track
Ground track

The orbit data is extracted from the following two-line orbital elements,

1 18586U 87098B   19344.53913927  .00000008  00000-0  11660-4 0  9996
2 18586  74.0083  66.2496 0022297 269.0485  90.8113 14.36883780677539
Epoch (UTC): 10 December 2019 12:56:21
Eccentricity: 0.0022297
inclination: 74.0083°
perigee height: 753 km
apogee height: 785 km
right ascension of ascending node: 66.2496°
argument of perigee: 269.0485°
revolutions per day: 14.36883780
mean anomaly at epoch: 90.8113°
orbit number at epoch: 67753

The dashed part of the orbit path shows where the satellite is in the earth's shadow,  

DLR